[[{"header":{"parameterUnit":"m.s-1","parameterCategory":1,"la1":30.2992,"la2":30.254,"lo1":-89.0895,"lo2":-89.0443,"dy":0.0025,"dx":0.0025,"nx":19,"ny":19,"refTime":"2026-03-11T09:00:00:Z","depth":0,"parameterNumber":2,"parameterNumberName":"U-component_of_WINDS"},"data":[0,0,0,-5.3084,-5.3091,-5.3358,-5.3359,-5.375,-5.3754,0,0,0,0,0,0,0,0,0,0,0,-5.3033,-5.3037,-5.3084,-5.3091,-5.3358,-5.3359,-5.375,-5.3754,0,0,0,0,0,0,0,0,0,0,0,-5.3032,-5.3036,-5.304,-5.3092,-5.3358,-5.3359,-5.3749,-5.353,0,0,0,0,0,0,0,0,0,0,-5.3262,-5.3242,-5.3035,-5.3041,-5.3094,-5.3358,-5.3359,-5.3519,-5.3544,-5.365,0,-5.375,0,-5.3758,-5.3783,-5.3785,0,0,0,-5.3071,-5.3222,-5.3268,-5.3041,-5.3097,-5.3357,-5.3232,-5.3532,-5.356,-5.3683,-5.3755,-5.3768,-5.3765,-5.3786,-5.3788,-5.4461,-5.4465,0,0,-5.3057,-5.3097,-5.3248,-5.3287,-5.3247,-5.3224,-5.3241,-5.3548,-5.363,-5.3756,-5.3776,-5.3771,-5.3789,-5.3792,-5.4457,-5.4462,0,0,0,-5.3028,-5.3088,-5.3125,-5.3273,-5.3317,-5.3232,-5.3251,-5.3616,-5.3625,-5.378,-5.3776,-5.3792,-5.3797,-5.4452,-5.4459,-5.4698,0,0,0,-5.3018,-5.3071,-5.312,-5.3148,-5.3312,-5.347,-5.3314,-5.3604,-5.3637,-5.3774,-5.3792,-5.3801,-5.4448,-5.4456,-5.4682,-5.4805,0,0,0,-5.3007,-5.3069,-5.3117,-5.315,-5.3265,-5.3464,-5.3489,-5.361,-5.3636,-5.3785,-5.3802,-5.4445,-5.4454,-5.4667,-5.4781,-5.4993,0,0,0,-5.3007,-5.3329,-5.3122,-5.348,-5.3264,-5.3609,-5.3487,-5.3743,-5.39,-5.3794,-5.4448,-5.4458,-5.4663,-5.4766,-5.4978,-5.5179,-5.5266,0,0,-5.3436,-5.3382,-5.359,-5.3412,-5.3804,-5.3565,-5.3993,-5.41,-5.4079,-5.4335,-5.4351,-5.4687,-5.478,-5.499,-5.5741,-5.5811,0,0,0,-5.3739,-5.3889,-5.3984,-5.4133,-5.422,-5.4305,-5.434,-5.438,-5.4594,-5.4218,-5.482,-5.4874,-5.4995,-5.5089,-5.5149,-5.525,-5.4503,-5.4502,-5.4501,-5.4408,-5.4359,-5.4698,-5.4682,-5.4829,-5.4861,-5.4976,-5.5034,-5.4946,-5.5089,-5.5165,-5.5626,-5.5738,-5.5782,-5.5889,-5.5267,-5.5268,-5.5269,-5.5269,-5.5032,-5.5235,-5.5106,-5.5388,-5.5336,-5.5574,-5.5618,-5.5547,-5.5762,-5.5566,-5.5671,-5.546,-5.586,-5.5951,-5.5287,-5.5284,-5.5282,-5.528,-5.5279,-5.5464,-5.5552,-5.5592,-5.5801,-5.5968,-5.5941,-5.6152,-5.6098,-5.6049,-5.6153,-5.6226,-5.6222,-5.6211,-5.6191,-5.6193,-5.6195,-5.6196,-5.6197,-5.6198,-5.5896,-5.5933,-5.6115,-5.6233,-5.632,-5.6428,-5.6463,-5.6548,-5.6629,-5.6574,-5.6574,-5.6472,-5.5908,-5.5767,-5.6223,-5.6218,-5.6215,-5.6213,-5.6211,-5.6547,-5.639,-5.6673,-5.6761,-5.6892,-5.7061,-5.6988,-5.7167,-5.723,-5.7336,-5.721,-5.6802,-5.6744,-5.6697,-5.658,-5.7219,-5.7219,-5.7219,-5.7219,-5.6911,-5.6875,-5.715,-5.7293,-5.7427,-5.7389,-5.7712,-5.7742,-5.7749,-5.7785,-5.7685,-5.7525,-5.7479,-5.7448,-5.7385,-5.7275,-5.8076,-5.8077,-5.8078,-5.7309,-5.7282,-5.7566,-5.7567,-5.7666,-5.7752,-5.8054,-5.8225,-5.8201,-5.8112,-5.7812,-5.7776,-5.7518,-5.7436,-5.7341,-5.7243,-5.7041,0,0]},{"header":{"parameterUnit":"m.s-1","parameterCategory":1,"la1":30.2992,"la2":30.254,"lo1":-89.0895,"lo2":-89.0443,"dy":0.0025,"dx":0.0025,"nx":19,"ny":19,"refTime":"2026-03-11T09:00:00:Z","depth":0,"parameterNumber":3,"parameterNumberName":"V-component_of_WINDS"},"data":[0,0,0,-1.3518,-1.3518,-1.354,-1.354,-1.3557,-1.3557,0,0,0,0,0,0,0,0,0,0,0,-1.3507,-1.3507,-1.3518,-1.3518,-1.354,-1.354,-1.3557,-1.3557,0,0,0,0,0,0,0,0,0,0,0,-1.3507,-1.3507,-1.3507,-1.3518,-1.354,-1.354,-1.3557,-1.3544,0,0,0,0,0,0,0,0,0,0,-1.3525,-1.351,-1.3507,-1.3507,-1.3518,-1.354,-1.354,-1.3543,-1.3545,-1.3543,0,-1.3541,0,-1.3549,-1.3557,-1.3557,0,0,0,-1.3522,-1.3509,-1.3519,-1.3507,-1.3519,-1.354,-1.3531,-1.3544,-1.3546,-1.3544,-1.3541,-1.3542,-1.3549,-1.3557,-1.3557,-1.3536,-1.3536,0,0,-1.3521,-1.3508,-1.3518,-1.352,-1.3518,-1.353,-1.3532,-1.3545,-1.3541,-1.3541,-1.3543,-1.355,-1.3557,-1.3557,-1.3537,-1.3536,0,0,0,-1.3515,-1.3507,-1.3517,-1.3519,-1.3524,-1.3531,-1.3532,-1.354,-1.3545,-1.3543,-1.355,-1.3557,-1.3557,-1.3537,-1.3537,-1.3511,0,0,0,-1.3514,-1.3503,-1.3516,-1.3508,-1.3523,-1.3533,-1.3527,-1.3544,-1.3546,-1.355,-1.3557,-1.3558,-1.3537,-1.3537,-1.3512,-1.35,0,0,0,-1.3507,-1.3503,-1.3504,-1.3508,-1.3517,-1.3533,-1.3538,-1.3544,-1.3549,-1.3557,-1.3558,-1.3538,-1.3537,-1.3513,-1.3502,-1.3489,0,0,0,-1.3495,-1.3482,-1.3504,-1.3491,-1.3516,-1.3517,-1.3538,-1.3539,-1.3543,-1.3557,-1.3537,-1.3537,-1.3514,-1.3503,-1.3491,-1.3475,-1.3468,0,0,-1.3471,-1.3478,-1.3472,-1.3492,-1.3485,-1.3515,-1.3504,-1.3519,-1.3532,-1.3534,-1.3533,-1.3511,-1.3502,-1.349,-1.3435,-1.343,0,0,0,-1.3459,-1.3454,-1.3455,-1.3458,-1.347,-1.3478,-1.3497,-1.3502,-1.3504,-1.3531,-1.3505,-1.35,-1.3493,-1.3486,-1.3481,-1.3475,-1.3533,-1.3534,-1.3534,-1.3406,-1.3422,-1.3412,-1.343,-1.3432,-1.345,-1.3453,-1.3463,-1.348,-1.3473,-1.3473,-1.3439,-1.343,-1.3427,-1.342,-1.3468,-1.3468,-1.3468,-1.3468,-1.337,-1.3365,-1.3386,-1.3383,-1.3399,-1.3396,-1.3412,-1.3423,-1.3422,-1.344,-1.3435,-1.3452,-1.342,-1.3415,-1.3466,-1.3466,-1.3466,-1.3467,-1.3467,-1.3336,-1.3336,-1.3343,-1.3347,-1.3348,-1.3367,-1.3364,-1.338,-1.3394,-1.3389,-1.3389,-1.339,-1.3391,-1.3388,-1.3388,-1.3388,-1.3388,-1.3388,-1.3388,-1.3297,-1.3306,-1.3302,-1.3311,-1.3314,-1.3319,-1.3336,-1.3339,-1.3345,-1.3357,-1.3357,-1.3372,-1.3415,-1.3424,-1.3386,-1.3386,-1.3387,-1.3387,-1.3387,-1.3253,-1.3265,-1.3259,-1.3261,-1.3272,-1.3271,-1.3291,-1.3294,-1.3298,-1.3296,-1.3312,-1.3342,-1.335,-1.3354,-1.3362,-1.331,-1.331,-1.331,-1.331,-1.3222,-1.3228,-1.3224,-1.3227,-1.3231,-1.3248,-1.3237,-1.3249,-1.3264,-1.3267,-1.3277,-1.3289,-1.3292,-1.3299,-1.3304,-1.3311,-1.3248,-1.3248,-1.3248,-1.3195,-1.3201,-1.3191,-1.3205,-1.3214,-1.3221,-1.3212,-1.3212,-1.3231,-1.3245,-1.3269,-1.3272,-1.3291,-1.3297,-1.3311,-1.3319,-1.3333,0,0]}]]